Starlink 3629

operational
NORAD ID: 51774 Int'l Des: 2022-017 Owner: SPXS Country: US Constellation: starlink
LEOCIRCULAR

About Starlink 3629

Description loading...

Live Position

Loading 3D Globe...

Upcoming Passes

Altitude History

Altitude vs Time

uPlot chart will show altitude changes over time

Two-Line Element Set

1 51774U 22017G 25304.75816400 -.00001620 00000-0 -83762-4 0 9992
2 51774 53.2174 197.9202 0001284 86.1997 273.9142 15.08818961203104
Epoch: Oct 31, 2025 • Age: 23 hours

Current Status

Altitude 542.9 km
Velocity 7.60 km/s
Sub-Earth Point 41.28°N, 57.22°W
Launch Date Feb 25, 2022
Age 3.6 years
Type internet

Technical Details

Classification Payload
Mass 297.00 kg
Dry Mass 275.00 kg
Total Mass 297.00 kg
Length 0.20 m
Diameter 2.80 m
Span 9.00 m
Shape Box + pan
Manufacturer SPXS
Bus Type Starlink
Phase Status In Orbit
Owner/State SPXS/US

Large Constellations

Loading constellations...